Location: Antichan
(42.9728°N, 0.6667°E)
Time: 17:30:25
(UTC+00:00)

Cosmos 2221 Rocket - Pass Details

Date: 15 August 2020
Orbit: 621 x 647 km, 82.5° (Epoch: 18 September)

Event Time Altitude Azimuth Distance (km) Brightness Sun altitude
Rises 21:59:39 0° 350° (N) 2,939 8.1 -26.8°
Reaches altitude 10° 22:01:53 10° 349° (N) 2,030 7.0 -27.1°
Enters shadow 22:05:37 60° 333° (NNW) 735 4.1 -27.4°
